date,time,SUV Intensity [MED/Hr],UV Index,Daily total [MED],Since Last [MED]
15/05/2022,00:08:05,0.001,0.0,0.0,0.0
15/05/2022,00:09:05,0.000,0.0,0.0,0.0
15/05/2022,00:10:05,0.000,0.0,0.0,0.0
15/05/2022,00:11:05,0.000,0.0,0.0,0.0
15/05/2022,00:12:05,-0.000,0.0,0.0,0.0
15/05/2022,00:13:05,0.001,0.0,0.0,0.0
15/05/2022,00:14:04,0.000,0.0,0.0,0.0
15/05/2022,00:15:05,0.000,0.0,0.0,0.0
15/05/2022,00:16:05,0.000,0.0,0.0,0.0
15/05/2022,00:17:05,0.000,0.0,0.0,0.0
15/05/2022,00:18:05,-0.001,0.0,0.0,0.0
15/05/2022,00:19:04,0.001,0.0,0.0,0.0
15/05/2022,00:20:13,0.000,0.0,0.0,0.0
15/05/2022,00:21:05,0.000,0.0,0.0,0.0
15/05/2022,00:22:05,0.000,0.0,0.0,0.0
15/05/2022,00:23:04,0.000,0.0,0.0,0.0
15/05/2022,00:24:05,-0.001,0.0,0.0,0.0
15/05/2022,00:25:05,0.000,0.0,0.0,0.0
15/05/2022,00:26:05,0.000,0.0,0.0,0.0
15/05/2022,00:27:04,-0.000,0.0,0.0,0.0
15/05/2022,00:28:04,0.001,0.0,0.0,0.0
15/05/2022,00:29:05,0.000,0.0,0.0,0.0
15/05/2022,00:30:05,0.001,0.0,0.0,0.0
15/05/2022,00:31:05,0.000,0.0,0.0,0.0
15/05/2022,00:32:05,0.000,0.0,0.0,0.0
15/05/2022,00:33:13,0.000,0.0,0.0,0.0
15/05/2022,00:34:05,-0.001,0.0,0.0,0.0
15/05/2022,00:35:14,0.000,0.0,0.0,0.0
15/05/2022,00:36:05,-0.001,0.0,0.0,0.0
15/05/2022,00:37:05,0.001,0.0,0.0,0.0
15/05/2022,00:38:05,0.000,0.0,0.0,0.0
15/05/2022,00:39:05,0.000,0.0,0.0,0.0
15/05/2022,00:40:05,-0.001,0.0,0.0,0.0
15/05/2022,00:41:05,0.000,0.0,0.0,0.0
15/05/2022,00:42:04,0.000,0.0,0.0,0.0
15/05/2022,00:43:05,0.000,0.0,0.0,0.0
15/05/2022,00:44:05,0.000,0.0,0.0,0.0
15/05/2022,00:45:05,0.001,0.0,0.0,0.0
15/05/2022,00:46:05,-0.000,0.0,0.0,0.0
15/05/2022,00:47:04,0.000,0.0,0.0,0.0
15/05/2022,00:48:05,0.000,0.0,0.0,0.0
15/05/2022,00:49:05,-0.001,0.0,0.0,0.0
15/05/2022,00:50:05,0.000,0.0,0.0,0.0
15/05/2022,00:51:13,0.000,0.0,0.0,0.0
15/05/2022,00:52:05,0.001,0.0,0.0,0.0
15/05/2022,00:53:13,-0.001,0.0,0.0,0.0
15/05/2022,00:54:04,0.000,0.0,0.0,0.0
15/05/2022,00:55:05,-0.001,0.0,0.0,0.0
15/05/2022,00:56:05,0.000,0.0,0.0,0.0
15/05/2022,00:57:05,0.000,0.0,0.0,0.0
15/05/2022,00:58:05,0.000,0.0,0.0,0.0
15/05/2022,00:59:05,0.000,0.0,0.0,0.0
15/05/2022,01:00:05,0.000,0.0,0.0,0.0
15/05/2022,01:01:04,0.001,0.0,0.0,0.0
15/05/2022,01:02:05,0.000,0.0,0.0,0.0
15/05/2022,01:03:05,0.001,0.0,0.0,0.0
15/05/2022,01:04:05,-0.000,0.0,0.0,0.0
15/05/2022,01:05:05,-0.000,0.0,0.0,0.0
15/05/2022,01:06:05,0.001,0.0,0.0,0.0
15/05/2022,01:07:05,0.000,0.0,0.0,0.0
15/05/2022,01:08:04,0.000,0.0,0.0,0.0
15/05/2022,01:09:13,0.000,0.0,0.0,0.0
15/05/2022,01:10:05,0.002,0.0,0.0,0.0
15/05/2022,01:11:05,0.000,0.0,0.0,0.0
15/05/2022,01:12:05,-0.001,0.0,0.0,0.0
15/05/2022,01:13:05,-0.000,0.0,0.0,0.0
15/05/2022,01:14:05,-0.000,0.0,0.0,0.0
15/05/2022,01:15:05,0.001,0.0,0.0,0.0
15/05/2022,01:16:05,0.001,0.0,0.0,0.0
15/05/2022,01:17:05,0.000,0.0,0.0,0.0
15/05/2022,01:18:05,-0.000,0.0,0.0,0.0
15/05/2022,01:19:04,0.001,0.0,0.0,0.0
15/05/2022,01:20:04,0.000,0.0,0.0,0.0
15/05/2022,01:21:04,0.000,0.0,0.0,0.0
15/05/2022,01:22:05,0.000,0.0,0.0,0.0
15/05/2022,01:23:05,0.001,0.0,0.0,0.0
15/05/2022,01:24:05,0.001,0.0,0.0,0.0
15/05/2022,01:25:14,0.000,0.0,0.0,0.0
15/05/2022,01:26:05,0.001,0.0,0.0,0.0
15/05/2022,01:27:13,-0.000,0.0,0.0,0.0
15/05/2022,01:28:05,0.000,0.0,0.0,0.0
15/05/2022,01:29:04,0.001,0.0,0.0,0.0
15/05/2022,01:30:04,0.001,0.0,0.0,0.0
15/05/2022,01:31:05,0.001,0.0,0.0,0.0
15/05/2022,01:32:05,0.001,0.0,0.0,0.0
15/05/2022,01:33:05,0.002,0.0,0.0,0.0
15/05/2022,01:34:05,0.001,0.0,0.0,0.0
15/05/2022,01:35:05,0.001,0.0,0.0,0.0
15/05/2022,01:36:05,0.002,0.0,0.0,0.0
15/05/2022,01:37:04,0.002,0.0,0.0,0.0
15/05/2022,01:38:05,0.001,0.0,0.0,0.0
15/05/2022,01:39:05,0.001,0.0,0.0,0.0
15/05/2022,01:40:13,0.001,0.0,0.0,0.0
15/05/2022,01:41:05,-0.000,0.0,0.0,0.0
15/05/2022,01:42:05,0.002,0.0,0.0,0.0
15/05/2022,01:43:13,-0.000,0.0,0.0,0.0
15/05/2022,01:44:05,-0.000,0.0,0.0,0.0
15/05/2022,01:45:04,0.001,0.0,0.0,0.0
15/05/2022,01:46:13,0.001,0.0,0.0,0.0
15/05/2022,01:47:05,0.001,0.0,0.0,0.0
15/05/2022,01:48:05,0.002,0.0,0.0,0.0
15/05/2022,01:49:13,0.001,0.0,0.0,0.0
15/05/2022,01:50:05,0.000,0.0,0.0,0.0
15/05/2022,01:51:05,-0.000,0.0,0.0,0.0
15/05/2022,01:52:05,0.001,0.0,0.0,0.0
15/05/2022,01:53:05,0.001,0.0,0.0,0.0
15/05/2022,01:54:05,0.001,0.0,0.0,0.0
15/05/2022,01:55:05,0.001,0.0,0.0,0.0
15/05/2022,01:56:05,0.001,0.0,0.0,0.0
15/05/2022,01:57:05,0.000,0.0,0.0,0.0
15/05/2022,01:58:05,0.001,0.0,0.0,0.0
15/05/2022,01:59:05,-0.000,0.0,0.0,0.0
15/05/2022,02:00:05,0.000,0.0,0.0,0.0
15/05/2022,02:01:05,0.001,0.0,0.0,0.0
15/05/2022,02:02:05,0.001,0.0,0.0,0.0
15/05/2022,02:03:05,0.001,0.0,0.0,0.0
15/05/2022,02:04:14,0.001,0.0,0.0,0.0
15/05/2022,02:05:05,0.001,0.0,0.0,0.0
15/05/2022,02:06:05,0.002,0.0,0.0,0.0
15/05/2022,02:07:05,0.001,0.0,0.0,0.0
15/05/2022,02:08:05,0.002,0.0,0.0,0.0
15/05/2022,02:09:12,-0.000,0.0,0.0,0.0
15/05/2022,02:10:05,0.001,0.0,0.0,0.0
15/05/2022,02:11:05,0.001,0.0,0.0,0.0
15/05/2022,02:12:06,0.002,0.0,0.0,0.0
15/05/2022,02:13:05,0.001,0.0,0.0,0.0
15/05/2022,02:14:14,0.000,0.0,0.0,0.0
15/05/2022,02:15:05,0.001,0.0,0.0,0.0
15/05/2022,02:16:05,0.002,0.0,0.0,0.0
15/05/2022,02:17:05,0.000,0.0,0.0,0.0
15/05/2022,02:18:05,0.001,0.0,0.0,0.0
15/05/2022,02:19:05,-0.000,0.0,0.0,0.0
15/05/2022,02:20:14,-0.000,0.0,0.0,0.0
15/05/2022,02:21:05,0.000,0.0,0.0,0.0
15/05/2022,02:22:05,0.001,0.0,0.0,0.0
15/05/2022,02:23:05,0.000,0.0,0.0,0.0
15/05/2022,02:24:05,0.001,0.0,0.0,0.0
15/05/2022,02:25:05,0.001,0.0,0.0,0.0
15/05/2022,02:26:05,0.001,0.0,0.0,0.0
15/05/2022,02:27:05,0.000,0.0,0.0,0.0
15/05/2022,02:28:05,0.001,0.0,0.0,0.0
15/05/2022,02:29:05,0.001,0.0,0.0,0.0
15/05/2022,02:30:05,0.001,0.0,0.0,0.0
15/05/2022,02:31:06,0.001,0.0,0.0,0.0
15/05/2022,02:32:05,0.001,0.0,0.0,0.0
15/05/2022,02:33:05,0.001,0.0,0.0,0.0
15/05/2022,02:34:05,0.001,0.0,0.0,0.0
15/05/2022,02:35:05,0.001,0.0,0.0,0.0
15/05/2022,02:36:05,0.001,0.0,0.0,0.0
15/05/2022,02:37:05,0.000,0.0,0.0,0.0
15/05/2022,02:38:14,0.000,0.0,0.0,0.0
15/05/2022,02:39:05,0.001,0.0,0.0,0.0
15/05/2022,02:40:05,0.001,0.0,0.0,0.0
15/05/2022,02:41:05,0.001,0.0,0.0,0.0
15/05/2022,02:42:05,0.000,0.0,0.0,0.0
15/05/2022,02:43:05,0.001,0.0,0.0,0.0
15/05/2022,02:44:06,0.001,0.0,0.0,0.0
15/05/2022,02:45:05,0.001,0.0,0.0,0.0
15/05/2022,02:46:05,0.001,0.0,0.0,0.0
15/05/2022,02:47:05,0.001,0.0,0.0,0.0
15/05/2022,02:48:05,0.001,0.0,0.0,0.0
15/05/2022,02:49:05,0.002,0.0,0.0,0.0
15/05/2022,02:50:05,0.000,0.0,0.0,0.0
15/05/2022,02:51:05,0.001,0.0,0.0,0.0
15/05/2022,02:52:05,0.001,0.0,0.0,0.0
15/05/2022,02:53:05,0.001,0.0,0.0,0.0
15/05/2022,02:54:14,0.001,0.0,0.0,0.0
15/05/2022,02:55:04,0.000,0.0,0.0,0.0
15/05/2022,02:56:05,0.001,0.0,0.0,0.0
15/05/2022,02:57:05,0.001,0.0,0.0,0.0
15/05/2022,02:58:05,0.002,0.0,0.0,0.0
15/05/2022,02:59:05,0.001,0.0,0.0,0.0
15/05/2022,03:00:05,0.002,0.0,0.0,0.0
15/05/2022,03:01:05,0.001,0.0,0.0,0.0
15/05/2022,03:02:05,0.001,0.0,0.0,0.0
15/05/2022,03:03:17,0.001,0.0,0.0,0.0
15/05/2022,03:04:04,0.001,0.0,0.0,0.0
15/05/2022,03:05:05,0.001,0.0,0.0,0.0
15/05/2022,03:06:05,0.001,0.0,0.0,0.0
15/05/2022,03:07:05,0.001,0.0,0.0,0.0
15/05/2022,03:08:05,0.002,0.0,0.0,0.0
15/05/2022,03:09:27,0.000,0.0,0.0,0.0
15/05/2022,03:11:05,0.002,0.0,0.0,0.0
15/05/2022,03:12:14,0.001,0.0,0.0,0.0
15/05/2022,03:13:05,0.001,0.0,0.0,0.0
15/05/2022,03:14:05,0.001,0.0,0.0,0.0
15/05/2022,03:15:05,0.001,0.0,0.0,0.0
15/05/2022,03:16:05,0.001,0.0,0.0,0.0
15/05/2022,03:17:05,0.002,0.0,0.0,0.0
15/05/2022,03:18:05,0.002,0.0,0.0,0.0
15/05/2022,03:19:05,0.000,0.0,0.0,0.0
15/05/2022,03:20:05,0.001,0.0,0.0,0.0
15/05/2022,03:21:05,0.001,0.0,0.0,0.0
15/05/2022,03:22:05,0.002,0.0,0.0,0.0
15/05/2022,03:23:05,0.001,0.0,0.0,0.0
15/05/2022,03:24:05,0.001,0.0,0.0,0.0
15/05/2022,03:25:06,0.001,0.0,0.0,0.0
15/05/2022,03:26:05,0.001,0.0,0.0,0.0
15/05/2022,03:27:05,0.000,0.0,0.0,0.0
15/05/2022,03:28:13,0.002,0.0,0.0,0.0
15/05/2022,03:29:05,0.002,0.0,0.0,0.0
15/05/2022,03:30:06,0.001,0.0,0.0,0.0
15/05/2022,03:31:06,0.001,0.0,0.0,0.0
15/05/2022,03:32:05,0.001,0.0,0.0,0.0
15/05/2022,03:33:05,0.002,0.0,0.0,0.0
15/05/2022,03:34:05,0.001,0.0,0.0,0.0
15/05/2022,03:35:05,0.001,0.0,0.0,0.0
15/05/2022,03:36:05,0.001,0.0,0.0,0.0
15/05/2022,03:37:05,0.000,0.0,0.0,0.0
15/05/2022,03:38:05,0.002,0.0,0.0,0.0
15/05/2022,03:39:05,0.001,0.0,0.0,0.0
15/05/2022,03:40:05,0.001,0.0,0.0,0.0
15/05/2022,03:41:05,0.001,0.0,0.0,0.0
15/05/2022,03:42:05,0.001,0.0,0.0,0.0
15/05/2022,03:43:14,0.002,0.0,0.0,0.0
15/05/2022,03:44:05,0.002,0.0,0.0,0.0
15/05/2022,03:45:05,0.001,0.0,0.0,0.0
15/05/2022,03:46:05,0.002,0.0,0.0,0.0
15/05/2022,03:47:06,0.002,0.0,0.0,0.0
15/05/2022,03:48:05,0.002,0.0,0.0,0.0
15/05/2022,03:49:05,0.002,0.0,0.0,0.0
15/05/2022,03:50:05,0.001,0.0,0.0,0.0
15/05/2022,03:51:05,0.003,0.0,0.0,0.0
15/05/2022,03:52:05,0.002,0.0,0.0,0.0
15/05/2022,03:53:05,0.001,0.0,0.0,0.0
15/05/2022,03:54:05,0.002,0.0,0.0,0.0
15/05/2022,03:55:05,0.003,0.0,0.0,0.0
15/05/2022,03:56:14,0.002,0.0,0.0,0.0
15/05/2022,03:57:05,0.002,0.0,0.0,0.0
15/05/2022,03:58:05,0.002,0.0,0.0,0.0
15/05/2022,03:59:05,0.002,0.0,0.0,0.0
15/05/2022,04:00:05,0.002,0.0,0.0,0.0
15/05/2022,04:01:05,0.002,0.0,0.0,0.0
15/05/2022,04:02:05,0.002,0.0,0.0,0.0
15/05/2022,04:03:06,0.003,0.0,0.0,0.0
15/05/2022,04:04:05,0.002,0.0,0.0,0.0
15/05/2022,04:05:05,0.002,0.0,0.0,0.0
15/05/2022,04:06:05,0.002,0.0,0.0,0.0
15/05/2022,04:07:05,0.002,0.0,0.0,0.0
15/05/2022,04:08:05,0.002,0.0,0.0,0.0
15/05/2022,04:09:14,0.002,0.0,0.0,0.0
15/05/2022,04:10:05,0.002,0.0,0.0,0.0
15/05/2022,04:11:05,0.002,0.0,0.0,0.0
15/05/2022,04:12:05,0.002,0.0,0.0,0.0
15/05/2022,04:13:05,0.002,0.0,0.0,0.0
15/05/2022,04:14:13,0.002,0.0,0.0,0.0
15/05/2022,04:15:05,0.003,0.0,0.0,0.0
15/05/2022,04:16:06,0.002,0.0,0.0,0.0
15/05/2022,04:17:13,0.003,0.0,0.0,0.0
15/05/2022,04:18:05,0.003,0.0,0.0,0.0
15/05/2022,04:19:06,0.003,0.0,0.0,0.0
15/05/2022,04:20:05,0.003,0.0,0.0,0.0
15/05/2022,04:21:05,0.004,0.0,0.0,0.0
15/05/2022,04:22:05,0.004,0.0,0.0,0.0
15/05/2022,04:23:05,0.004,0.0,0.0,0.0
15/05/2022,04:24:05,0.004,0.0,0.0,0.0
15/05/2022,04:25:05,0.004,0.0,0.0,0.0
15/05/2022,04:26:05,0.004,0.0,0.0,0.0
15/05/2022,04:27:14,0.004,0.0,0.0,0.0
15/05/2022,04:28:05,0.004,0.0,0.0,0.0
15/05/2022,04:29:05,0.004,0.0,0.0,0.0
15/05/2022,04:30:05,0.005,0.0,0.0,0.0
15/05/2022,04:31:05,0.004,0.0,0.0,0.0
15/05/2022,04:32:05,0.005,0.0,0.0,0.0
15/05/2022,04:33:05,0.004,0.0,0.0,0.0
15/05/2022,04:34:06,0.005,0.0,0.0,0.0
15/05/2022,04:35:05,0.006,0.0,0.0,0.0
15/05/2022,04:36:05,0.006,0.0,0.0,0.0
15/05/2022,04:37:05,0.006,0.0,0.0,0.0
15/05/2022,04:38:05,0.006,0.0,0.0,0.0
15/05/2022,04:39:13,0.008,0.0,0.0,0.0
15/05/2022,04:40:05,0.007,0.0,0.0,0.0
15/05/2022,04:41:05,0.007,0.0,0.0,0.0
15/05/2022,04:42:14,0.007,0.0,0.001,0.001
15/05/2022,04:43:06,0.008,0.0,0.001,0.0
15/05/2022,04:44:06,0.008,0.0,0.001,0.0
15/05/2022,04:45:05,0.009,0.0,0.001,0.0
15/05/2022,04:46:05,0.009,0.0,0.001,0.0
15/05/2022,04:47:05,0.008,0.0,0.001,0.0
15/05/2022,04:48:05,0.009,0.0,0.001,0.0
15/05/2022,04:49:06,0.009,0.0,0.002,0.001
15/05/2022,04:50:06,0.010,0.0,0.002,0.0
15/05/2022,04:51:05,0.011,0.0,0.002,0.0
15/05/2022,04:52:05,0.011,0.0,0.002,0.0
15/05/2022,04:53:06,0.011,0.0,0.002,0.0
15/05/2022,04:54:05,0.012,0.0,0.002,0.0
15/05/2022,04:55:05,0.012,0.0,0.003,0.001
15/05/2022,04:56:05,0.012,0.0,0.003,0.0
15/05/2022,04:57:05,0.012,0.0,0.003,0.0
15/05/2022,04:58:14,0.014,0.0,0.003,0.0
15/05/2022,04:59:05,0.013,0.0,0.003,0.0
15/05/2022,05:00:05,0.014,0.0,0.004,0.001
15/05/2022,05:01:06,0.014,0.0,0.004,0.0
15/05/2022,05:02:05,0.016,0.0,0.004,0.0
15/05/2022,05:03:06,0.015,0.0,0.004,0.0
15/05/2022,05:04:05,0.016,0.0,0.005,0.001
15/05/2022,05:05:06,0.016,0.0,0.005,0.0
15/05/2022,05:06:06,0.017,0.0,0.005,0.0
15/05/2022,05:07:05,0.016,0.0,0.006,0.001
15/05/2022,05:08:05,0.017,0.0,0.006,0.0
15/05/2022,05:09:05,0.018,0.0,0.006,0.0
15/05/2022,05:10:13,0.019,0.0,0.006,0.0
15/05/2022,05:11:06,0.019,0.0,0.007,0.001
15/05/2022,05:12:05,0.020,0.0,0.007,0.0
15/05/2022,05:13:14,0.020,0.0,0.007,0.0
15/05/2022,05:14:05,0.021,0.0,0.008,0.001
15/05/2022,05:15:05,0.022,0.0,0.008,0.0
15/05/2022,05:16:05,0.022,0.0,0.008,0.0
15/05/2022,05:17:05,0.022,0.0,0.009,0.001
15/05/2022,05:18:06,0.023,0.0,0.009,0.0
15/05/2022,05:19:06,0.024,0.0,0.01,0.001
15/05/2022,05:20:05,0.025,0.0,0.01,0.0
15/05/2022,05:21:05,0.025,0.0,0.01,0.0
15/05/2022,05:22:05,0.027,0.0,0.011,0.001
15/05/2022,05:23:05,0.028,0.0,0.011,0.0
15/05/2022,05:24:05,0.029,0.0,0.012,0.001
15/05/2022,05:25:05,0.030,0.0,0.012,0.0
15/05/2022,05:26:14,0.031,0.0,0.013,0.001
15/05/2022,05:27:05,0.032,0.0,0.013,0.0
15/05/2022,05:28:05,0.032,0.0,0.014,0.001
15/05/2022,05:29:13,0.034,0.0,0.014,0.0
15/05/2022,05:30:05,0.034,0.0,0.015,0.001
15/05/2022,05:31:06,0.035,0.0,0.016,0.001
15/05/2022,05:32:22,0.035,0.0,0.016,0.0
15/05/2022,05:34:05,0.035,0.0,0.017,0.001
15/05/2022,05:35:06,0.035,0.0,0.018,0.001
15/05/2022,05:36:05,0.036,0.0,0.018,0.0
15/05/2022,05:37:05,0.035,0.0,0.019,0.001
15/05/2022,05:38:05,0.031,0.0,0.02,0.001
15/05/2022,05:39:06,0.028,0.0,0.02,0.0
15/05/2022,05:40:06,0.026,0.0,0.021,0.001
15/05/2022,05:41:06,0.024,0.0,0.021,0.0
15/05/2022,05:42:05,0.023,0.0,0.021,0.0
15/05/2022,05:43:05,0.022,0.0,0.022,0.001
15/05/2022,05:44:05,0.022,0.0,0.022,0.0
15/05/2022,05:45:05,0.023,0.0,0.022,0.0
15/05/2022,05:46:05,0.024,0.0,0.023,0.001
15/05/2022,05:47:05,0.025,0.0,0.023,0.0
15/05/2022,05:48:06,0.026,0.0,0.024,0.001
15/05/2022,05:49:06,0.026,0.0,0.024,0.0
15/05/2022,05:50:05,0.027,0.0,0.024,0.0
15/05/2022,05:51:06,0.026,0.0,0.025,0.001
15/05/2022,05:52:05,0.026,0.0,0.025,0.0
15/05/2022,05:53:05,0.025,0.0,0.026,0.001
15/05/2022,05:54:08,0.026,0.0,0.026,0.0
15/05/2022,05:55:05,0.025,0.0,0.027,0.001
15/05/2022,05:56:05,0.027,0.0,0.027,0.0
15/05/2022,05:57:05,0.028,0.0,0.028,0.001
15/05/2022,05:58:05,0.030,0.0,0.028,0.0
15/05/2022,05:59:06,0.033,0.0,0.029,0.001
15/05/2022,06:00:14,0.037,0.0,0.029,0.0
15/05/2022,06:01:05,0.038,0.0,0.03,0.001
15/05/2022,06:02:05,0.043,0.0,0.03,0.0
15/05/2022,06:03:05,0.048,0.0,0.031,0.001
15/05/2022,06:04:06,0.052,0.0,0.032,0.001
15/05/2022,06:05:05,0.055,0.0,0.033,0.001
15/05/2022,06:06:05,0.059,0.0,0.034,0.001
15/05/2022,06:07:13,0.064,0.0,0.035,0.001
15/05/2022,06:08:05,0.064,0.0,0.036,0.001
15/05/2022,06:09:06,0.067,0.0,0.037,0.001
15/05/2022,06:10:06,0.068,0.0,0.038,0.001
15/05/2022,06:11:05,0.070,0.0,0.039,0.001
15/05/2022,06:12:05,0.071,0.0,0.04,0.001
15/05/2022,06:13:05,0.073,0.0,0.042,0.002
15/05/2022,06:14:05,0.075,0.0,0.043,0.001
15/05/2022,06:15:05,0.076,0.0,0.044,0.001
15/05/2022,06:16:05,0.076,0.0,0.045,0.001
15/05/2022,06:17:06,0.075,0.0,0.047,0.002
15/05/2022,06:18:05,0.076,0.0,0.048,0.001
15/05/2022,06:19:05,0.075,0.0,0.049,0.001
15/05/2022,06:20:05,0.077,0.0,0.05,0.001
15/05/2022,06:21:05,0.077,0.0,0.052,0.002
15/05/2022,06:22:13,0.079,0.0,0.053,0.001
15/05/2022,06:23:06,0.079,0.0,0.054,0.001
15/05/2022,06:24:06,0.081,0.0,0.056,0.002
15/05/2022,06:25:06,0.082,0.0,0.057,0.001
15/05/2022,06:26:05,0.083,0.0,0.058,0.001
15/05/2022,06:27:05,0.083,0.0,0.06,0.002
15/05/2022,06:28:05,0.082,0.0,0.061,0.001
15/05/2022,06:29:06,0.082,0.0,0.063,0.002
15/05/2022,06:30:06,0.080,0.0,0.064,0.001
15/05/2022,06:31:05,0.082,0.0,0.065,0.001
15/05/2022,06:32:05,0.085,0.0,0.067,0.002
15/05/2022,06:33:05,0.089,0.0,0.068,0.001
15/05/2022,06:34:05,0.096,0.0,0.07,0.002
15/05/2022,06:35:05,0.103,0.0,0.071,0.001
15/05/2022,06:36:06,0.108,0.0,0.073,0.002
15/05/2022,06:37:05,0.111,0.0,0.075,0.002
15/05/2022,06:38:13,0.121,0.0,0.077,0.002
15/05/2022,06:39:06,0.119,0.0,0.079,0.002
15/05/2022,06:40:06,0.121,0.0,0.081,0.002
15/05/2022,06:41:14,0.125,0.0,0.083,0.002
15/05/2022,06:42:05,0.129,0.0,0.085,0.002
15/05/2022,06:43:06,0.132,0.0,0.087,0.002
15/05/2022,06:44:05,0.135,0.0,0.089,0.002
15/05/2022,06:45:05,0.135,0.0,0.092,0.003
15/05/2022,06:46:05,0.136,0.0,0.094,0.002
15/05/2022,06:47:05,0.139,0.0,0.096,0.002
15/05/2022,06:48:06,0.142,0.0,0.098,0.002
15/05/2022,06:49:05,0.146,0.0,0.101,0.003
15/05/2022,06:50:05,0.149,0.0,0.103,0.002
15/05/2022,06:51:14,0.157,0.0,0.106,0.003
15/05/2022,06:52:05,0.162,0.0,0.108,0.002
15/05/2022,06:53:05,0.168,0.0,0.111,0.003
15/05/2022,06:54:05,0.173,0.0,0.114,0.003
15/05/2022,06:55:06,0.178,0.0,0.117,0.003
15/05/2022,06:56:05,0.179,0.0,0.12,0.003
15/05/2022,06:57:05,0.182,0.0,0.123,0.003
15/05/2022,06:58:05,0.183,0.0,0.126,0.003
15/05/2022,06:59:06,0.183,0.0,0.129,0.003
15/05/2022,07:00:06,0.182,0.0,0.132,0.003
15/05/2022,07:01:06,0.178,0.0,0.135,0.003
15/05/2022,07:02:06,0.176,0.0,0.138,0.003
15/05/2022,07:03:07,0.173,0.0,0.141,0.003
15/05/2022,07:04:05,0.172,0.0,0.144,0.003
15/05/2022,07:05:05,0.171,0.0,0.147,0.003
15/05/2022,07:06:06,0.173,0.0,0.15,0.003
15/05/2022,07:07:06,0.177,0.0,0.153,0.003
15/05/2022,07:08:06,0.181,0.0,0.155,0.002
15/05/2022,07:09:05,0.184,0.0,0.158,0.003
15/05/2022,07:10:05,0.190,0.0,0.162,0.004
15/05/2022,07:11:05,0.193,0.0,0.165,0.003
15/05/2022,07:12:05,0.197,0.0,0.168,0.003
15/05/2022,07:13:05,0.201,0.0,0.171,0.003
15/05/2022,07:14:06,0.202,0.0,0.175,0.004
15/05/2022,07:15:06,0.204,0.0,0.178,0.003
15/05/2022,07:16:05,0.202,0.0,0.181,0.003
15/05/2022,07:17:05,0.204,0.0,0.185,0.004
15/05/2022,07:18:06,0.204,0.0,0.188,0.003
15/05/2022,07:19:06,0.205,0.0,0.192,0.004
15/05/2022,07:20:05,0.206,0.0,0.195,0.003
15/05/2022,07:21:05,0.209,0.0,0.199,0.004
15/05/2022,07:22:15,0.214,0.0,0.203,0.004
15/05/2022,07:23:05,0.218,1.0,0.206,0.003
15/05/2022,07:24:06,0.221,1.0,0.209,0.003
15/05/2022,07:25:14,0.220,1.0,0.214,0.005
15/05/2022,07:26:05,0.220,1.0,0.217,0.003
15/05/2022,07:27:05,0.220,1.0,0.22,0.003
15/05/2022,07:28:13,0.218,1.0,0.224,0.004
15/05/2022,07:29:05,0.217,0.0,0.227,0.003
15/05/2022,07:30:05,0.215,0.0,0.231,0.004
15/05/2022,07:31:05,0.215,0.0,0.235,0.004
15/05/2022,07:32:06,0.217,0.0,0.238,0.003
15/05/2022,07:33:06,0.220,1.0,0.242,0.004
15/05/2022,07:34:05,0.224,1.0,0.246,0.004
15/05/2022,07:35:05,0.230,1.0,0.249,0.003
15/05/2022,07:36:06,0.236,1.0,0.253,0.004
15/05/2022,07:37:06,0.246,1.0,0.257,0.004
15/05/2022,07:38:05,0.257,1.0,0.262,0.005
15/05/2022,07:39:06,0.270,1.0,0.266,0.004
15/05/2022,07:40:06,0.284,1.0,0.271,0.005
15/05/2022,07:41:06,0.302,1.0,0.276,0.005
15/05/2022,07:42:05,0.339,1.0,0.281,0.005
15/05/2022,07:43:06,0.380,1.0,0.287,0.006
15/05/2022,07:44:05,0.401,1.0,0.293,0.006
15/05/2022,07:45:05,0.364,1.0,0.299,0.006
15/05/2022,07:46:05,0.429,1.0,0.306,0.007
15/05/2022,07:47:06,0.462,1.0,0.314,0.008
15/05/2022,07:48:06,0.420,1.0,0.322,0.008
15/05/2022,07:49:06,0.407,1.0,0.328,0.006
15/05/2022,07:50:06,0.455,1.0,0.335,0.007
15/05/2022,07:51:06,0.447,1.0,0.343,0.008
15/05/2022,07:52:06,0.426,1.0,0.35,0.007
15/05/2022,07:53:14,0.494,1.0,0.359,0.009
15/05/2022,07:54:05,0.503,1.0,0.366,0.007
15/05/2022,07:55:05,0.479,1.0,0.375,0.009
15/05/2022,07:56:06,0.527,1.0,0.383,0.008
15/05/2022,07:57:06,0.544,1.0,0.392,0.009
15/05/2022,07:58:06,0.536,1.0,0.401,0.009
15/05/2022,07:59:13,0.519,1.0,0.411,0.01
15/05/2022,08:00:06,0.433,1.0,0.418,0.007
15/05/2022,08:01:06,0.462,1.0,0.425,0.007
15/05/2022,08:02:05,0.466,1.0,0.433,0.008
15/05/2022,08:03:07,0.453,1.0,0.44,0.007
15/05/2022,08:04:05,0.431,1.0,0.447,0.007
15/05/2022,08:05:05,0.396,1.0,0.454,0.007
15/05/2022,08:06:06,0.388,1.0,0.461,0.007
15/05/2022,08:07:05,0.379,1.0,0.467,0.006
15/05/2022,08:08:05,0.377,1.0,0.473,0.006
15/05/2022,08:09:14,0.380,1.0,0.48,0.007
15/05/2022,08:10:06,0.385,1.0,0.486,0.006
15/05/2022,08:11:05,0.390,1.0,0.492,0.006
15/05/2022,08:12:05,0.403,1.0,0.499,0.007
15/05/2022,08:13:05,0.419,1.0,0.506,0.007
15/05/2022,08:14:05,0.413,1.0,0.513,0.007
15/05/2022,08:15:05,0.418,1.0,0.52,0.007
15/05/2022,08:16:06,0.442,1.0,0.527,0.007
15/05/2022,08:17:06,0.419,1.0,0.535,0.008
15/05/2022,08:18:06,0.470,1.0,0.542,0.007
15/05/2022,08:19:06,0.571,1.0,0.551,0.009
15/05/2022,08:20:05,0.446,1.0,0.559,0.008
15/05/2022,08:21:06,0.403,1.0,0.566,0.007
15/05/2022,08:22:06,0.393,1.0,0.573,0.007
15/05/2022,08:23:06,0.387,1.0,0.58,0.007
15/05/2022,08:24:14,0.373,1.0,0.587,0.007
15/05/2022,08:25:05,0.363,1.0,0.592,0.005
15/05/2022,08:26:05,0.356,1.0,0.598,0.006
15/05/2022,08:27:06,0.355,1.0,0.604,0.006
15/05/2022,08:28:06,0.360,1.0,0.61,0.006
15/05/2022,08:29:05,0.370,1.0,0.616,0.006
15/05/2022,08:30:05,0.381,1.0,0.622,0.006
15/05/2022,08:31:06,0.392,1.0,0.629,0.007
15/05/2022,08:32:06,0.408,1.0,0.635,0.006
15/05/2022,08:33:06,0.424,1.0,0.642,0.007
15/05/2022,08:34:06,0.436,1.0,0.649,0.007
15/05/2022,08:35:06,0.444,1.0,0.657,0.008
15/05/2022,08:36:06,0.434,1.0,0.664,0.007
15/05/2022,08:37:05,0.434,1.0,0.671,0.007
15/05/2022,08:38:07,0.452,1.0,0.679,0.008
15/05/2022,08:39:05,0.471,1.0,0.686,0.007
15/05/2022,08:40:14,0.535,1.0,0.696,0.01
15/05/2022,08:41:06,0.571,1.0,0.704,0.008
15/05/2022,08:42:06,0.612,1.0,0.714,0.01
15/05/2022,08:43:06,0.683,2.0,0.725,0.011
15/05/2022,08:44:14,0.665,2.0,0.737,0.012
15/05/2022,08:45:06,0.655,2.0,0.747,0.01
15/05/2022,08:46:06,0.637,1.0,0.758,0.011
15/05/2022,08:47:05,0.636,1.0,0.769,0.011
15/05/2022,08:47:56,0.643,1.0,0.777,0.008
15/05/2022,08:49:06,0.653,2.0,0.79,0.013
15/05/2022,08:50:06,0.639,1.0,0.801,0.011
15/05/2022,08:51:06,0.677,2.0,0.812,0.011
15/05/2022,08:52:05,0.709,2.0,0.823,0.011
15/05/2022,08:53:14,0.719,2.0,0.836,0.013
15/05/2022,08:54:05,0.718,2.0,0.846,0.01
15/05/2022,08:55:14,0.697,2.0,0.86,0.014
15/05/2022,08:56:07,0.770,2.0,0.871,0.011
15/05/2022,08:57:05,0.811,2.0,0.884,0.013
15/05/2022,08:58:07,0.795,2.0,0.897,0.013
15/05/2022,08:59:06,0.840,2.0,0.91,0.013
15/05/2022,09:00:06,0.828,2.0,0.924,0.014
15/05/2022,09:01:07,0.816,2.0,0.938,0.014
15/05/2022,09:02:05,0.869,2.0,0.952,0.014
15/05/2022,09:03:06,0.841,2.0,0.966,0.014
15/05/2022,09:04:05,0.766,2.0,0.979,0.013
15/05/2022,09:05:05,0.837,2.0,0.993,0.014
15/05/2022,09:06:06,0.726,2.0,1.006,0.013
15/05/2022,09:07:06,0.735,2.0,1.018,0.012
15/05/2022,09:08:14,0.765,2.0,1.032,0.014
15/05/2022,09:09:06,0.658,2.0,1.042,0.01
15/05/2022,09:10:05,0.660,2.0,1.053,0.011
15/05/2022,09:11:14,0.600,1.0,1.064,0.011
15/05/2022,09:12:06,0.591,1.0,1.073,0.009
15/05/2022,09:13:06,0.556,1.0,1.083,0.01
15/05/2022,09:14:05,0.512,1.0,1.091,0.008
15/05/2022,09:15:05,0.470,1.0,1.1,0.009
15/05/2022,09:16:06,0.432,1.0,1.107,0.007
15/05/2022,09:17:06,0.403,1.0,1.114,0.007
15/05/2022,09:18:06,0.380,1.0,1.121,0.007
15/05/2022,09:19:06,0.359,1.0,1.127,0.006
15/05/2022,09:20:05,0.337,1.0,1.132,0.005
15/05/2022,09:21:06,0.313,1.0,1.138,0.006
15/05/2022,09:22:06,0.287,1.0,1.143,0.005
15/05/2022,09:23:14,0.258,1.0,1.148,0.005
15/05/2022,09:24:06,0.241,1.0,1.152,0.004
15/05/2022,09:25:06,0.228,1.0,1.155,0.003
15/05/2022,09:26:05,0.221,1.0,1.159,0.004
15/05/2022,09:27:06,0.220,1.0,1.163,0.004
15/05/2022,09:28:06,0.221,1.0,1.167,0.004
15/05/2022,09:29:05,0.222,1.0,1.17,0.003
15/05/2022,09:30:31,0.226,1.0,1.175,0.005
15/05/2022,09:32:06,0.228,1.0,1.182,0.007
15/05/2022,09:33:06,0.231,1.0,1.185,0.003
15/05/2022,09:34:06,0.233,1.0,1.189,0.004
15/05/2022,09:35:06,0.234,1.0,1.193,0.004
15/05/2022,09:36:14,0.238,1.0,1.198,0.005
15/05/2022,09:37:05,0.240,1.0,1.201,0.003
15/05/2022,09:38:06,0.244,1.0,1.205,0.004
15/05/2022,09:39:14,0.249,1.0,1.21,0.005
15/05/2022,09:40:06,0.252,1.0,1.213,0.003
15/05/2022,09:41:05,0.253,1.0,1.218,0.005
15/05/2022,09:42:06,0.255,1.0,1.222,0.004
15/05/2022,09:43:06,0.258,1.0,1.226,0.004
15/05/2022,09:44:06,0.266,1.0,1.23,0.004
15/05/2022,09:45:05,0.279,1.0,1.235,0.005
15/05/2022,09:46:06,0.299,1.0,1.24,0.005
15/05/2022,09:47:06,0.318,1.0,1.245,0.005
15/05/2022,09:48:06,0.339,1.0,1.25,0.005
15/05/2022,09:49:05,0.357,1.0,1.256,0.006
15/05/2022,09:50:06,0.369,1.0,1.262,0.006
15/05/2022,09:51:06,0.372,1.0,1.268,0.006
15/05/2022,09:52:06,0.362,1.0,1.275,0.007
15/05/2022,09:53:05,0.343,1.0,1.28,0.005
15/05/2022,09:54:18,0.312,1.0,1.287,0.007
15/05/2022,09:55:05,0.294,1.0,1.291,0.004
15/05/2022,09:56:05,0.271,1.0,1.296,0.005
15/05/2022,09:57:06,0.250,1.0,1.3,0.004
15/05/2022,09:58:06,0.232,1.0,1.304,0.004
15/05/2022,09:59:06,0.214,0.0,1.308,0.004
15/05/2022,10:00:05,0.199,0.0,1.311,0.003
15/05/2022,10:01:05,0.186,0.0,1.314,0.003
15/05/2022,10:02:06,0.176,0.0,1.317,0.003
15/05/2022,10:03:06,0.169,0.0,1.32,0.003
15/05/2022,10:04:06,0.161,0.0,1.323,0.003
15/05/2022,10:05:05,0.155,0.0,1.326,0.003
15/05/2022,10:06:05,0.150,0.0,1.328,0.002
15/05/2022,10:07:06,0.146,0.0,1.331,0.003
15/05/2022,10:08:06,0.143,0.0,1.333,0.002